Regional Weather Roundup
Issued by NWS New Orleans/Baton Rouge, LA

Home | Current Version | Previous Version | Text Only | Print | Product List | Glossary On
Versions: 1 2 3 4 5 6 7 8 9 10 11 12 13 14 15 16 17 18 19 20 21 22 23 24 25 26 27
000
ASUS44 KLIX 220013
RWRLIX
NEW ORLEANS REGIONAL WEATHER ROUNDUP
NATIONAL WEATHER SERVICE NEW ORLEANS LA
600 PM CST SAT JAN 21 2017

NOTE: "FAIR" INDICATES FEW OR NO CLOUDS BELOW 12,000 FEET WITH NO
      SIGNIFICANT WEATHER AND/OR OBSTRUCTIONS TO VISIBILITY.
      SKY/WX - SKY CONDITION AND SIGNIFICANT WEATHER.
      TMP - AIR TEMPERATURE.     DP    - DEWPOINT TEMPERATURE.
      RH  - RELATIVE HUMIDITY.   PRES  - PRESSURE.
      HI  - HEAT INDEX.          WCI   - WIND CHILL INDEX.

*  THESE STATIONS ARE NOT NWS OR FAA STATIONS AND ARE NOT UNDER
   NWS QUALITY CONTROL.

LAZ038-040-048-061>063-065>067-069-220100-
SOUTHEAST LOUISIANA

CITY           SKY/WX    TMP DP  RH WIND       PRES   REMARKS
N.O. AUDUBON   NOT AVBL
N.O. INTL ARPT CLOUDY    70  66  87 CALM      29.51F
6HR MIN TEMP:  69; 6HR MAX TEMP:  78; 6HR PCP:  0.48;

N.O. LAKEFRONT CLOUDY    74  72  93 S16G22    29.52R
6HR MIN TEMP:  70; 6HR MAX TEMP:  77; 6HR PCP:  0.09;

N.O. DOWNTOWN*   N/A     75  72  90 S12G22    29.52R
6HR MIN TEMP:  71; 6HR MAX TEMP:  79;

RESERVE*       CLOUDY    72  69  89 SW5       29.50F
6HR MIN TEMP:  70; 6HR MAX TEMP:  78; 6HR PCP:  0.07;

SLIDELL        TSTM      67  64  90 S9        29.51F FOG
6HR MIN TEMP:  67; 6HR MAX TEMP:  74; 6HR PCP:  0.15;

BATON ROUGE    MOCLDY    70  64  81 E7        29.49S
6HR MIN TEMP:  69; 6HR MAX TEMP:  75;

BOOTHVILLE     CLOUDY    70  69  97 S17G25    29.56F
6HR MIN TEMP:  70; 6HR MAX TEMP:  74;

BELLE CHASSE   CLOUDY    74  72  93 S20G30    29.51S FOG
6HR MIN TEMP:  70; 6HR MAX TEMP:  78; 6HR PCP: TRACE;

BOGALUSA*      CLOUDY    71  62  74 SE3       29.54F
6HR MIN TEMP:  71; 6HR MAX TEMP:  77; 6HR PCP:  0.01;

GALLIANO*      CLOUDY    74  70  87 S17G24    29.53S
6HR MIN TEMP:  74; 6HR MAX TEMP:  79;

NEW ROADS*     CLOUDY    69  64  84 SE6       29.48S
6HR MIN TEMP:  69; 6HR MAX TEMP:  73;

GONZALES*      CLOUDY    72  65  79 CALM      29.48F
6HR MIN TEMP:  69; 6HR MAX TEMP:  76;

HAMMOND*       MOCLDY    68  63  83 E5        29.50F
HOUMA*         CLOUDY    73  72  94 S14G20    29.51F FOG
PORT FOURCHON* MOCLDY    73  70  88 S13G20    29.54S FOG

$$

MSZ070-080>082-220100-
SOUTHERN MISSISSIPPI

CITY           SKY/WX    TMP DP  RH WIND       PRES   REMARKS
MCCOMB         PTCLDY    69  62  78 SE5       29.51F
6HR MIN TEMP:  69; 6HR MAX TEMP:  74;

GULFPORT       TSTM      68  68 100 E12       29.51F
6HR MIN TEMP:  68; 6HR MAX TEMP:  69; 6HR PCP:  0.01;

BILOXI         LGT RAIN  68  68 100 SE14      29.51F FOG
6HR MIN TEMP:  68; 6HR MAX TEMP:  70;

PASCAGOULA     CLOUDY    68  63  84 E8        29.56F
6HR MIN TEMP:  68; 6HR MAX TEMP:  75;

STENNIS ARPT*  TSTM      66  64  94 E5        29.54F

$$

COASTAL OBSERVATIONS
LAKE AND NEARSHORE STATIONS

STATION/POSITION TIME  TEMP    WIND        PRES    WAVE
                       AIR SEA DIR/SP/G            HT/PER
                 (UTC) (F)     (DEG/KT/KT) (MB)    (FT/S)
PASCAGOULA       2342          110/ 11/ 14 1000.8
WAVELAND YACHT   2348      68  130/ 13/ 15  999.6
GRAND ISLE       2348      67  190/  8/ 13 1000.4
SOUTHWEST PASS   2342          180/ 18/ 20   N/A
NEW CANAL        2348      61  210/ 10/ 16  998.6
SHELL BEACH      2348      68  170/ 17/ 22  999.7

OFFSHORE STATIONS

STATION/POSITION TIME  TEMP    WIND        PRES    WAVE
                       AIR SEA DIR/SP/G            HT/PER
                 (UTC) (F)     (DEG/KT/KT) (MB)    (FT/S)

$$





USA.gov is the U.S. government's official web portal to all federal, state and local government web resources and services.